Year,Month,Day,Hour,Minute,Value (Times are PST for temperature in C)
2009,06,19,09,03,14.80
2009,06,19,09,04,14.80
2009,06,19,09,05,14.80
2009,06,19,09,06,14.80
2009,06,19,09,07,14.70
2009,06,19,09,08,14.60
2009,06,19,09,09,14.60
2009,06,19,09,10,14.50
2009,06,19,09,11,14.40
2009,06,19,09,12,14.40
2009,06,19,09,13,14.30
2009,06,19,09,14,14.30
2009,06,19,09,15,14.30
2009,06,19,09,16,14.30
2009,06,19,09,17,14.20
2009,06,19,09,18,14.20
2009,06,19,09,19,14.20
2009,06,19,09,20,14.20
2009,06,19,09,21,14.20
2009,06,19,09,22,14.20
2009,06,19,09,23,14.20
2009,06,19,09,24,14.10
2009,06,19,09,25,14.20
2009,06,19,09,26,14.10
2009,06,19,09,27,14.10
2009,06,19,09,28,14.10
2009,06,19,09,29,14.10
2009,06,19,09,30,14.10
2009,06,19,09,31,14.10
2009,06,19,09,32,14.20
2009,06,19,09,33,14.20
2009,06,19,09,34,14.30
2009,06,19,09,35,14.30
2009,06,19,09,36,14.40
2009,06,19,09,37,14.40
2009,06,19,09,38,14.50
2009,06,19,09,39,14.50
2009,06,19,09,40,14.50
2009,06,19,09,41,14.50
2009,06,19,09,42,14.60
2009,06,19,09,43,14.60
2009,06,19,09,44,14.70
2009,06,19,09,45,14.70
2009,06,19,09,46,14.70
2009,06,19,09,47,14.70
2009,06,19,09,48,14.70
2009,06,19,09,49,14.70
2009,06,19,09,50,14.70
2009,06,19,09,51,14.60
2009,06,19,09,52,14.50
2009,06,19,09,53,14.50
2009,06,19,09,54,14.50
2009,06,19,09,55,14.50
2009,06,19,09,56,14.50
2009,06,19,09,57,14.50
2009,06,19,09,58,14.50
2009,06,19,09,59,14.50
2009,06,19,10,00,14.50
2009,06,19,10,01,14.50
2009,06,19,10,02,14.60
2009,06,19,10,03,14.60
2009,06,19,10,04,14.60
2009,06,19,10,05,14.60
2009,06,19,10,06,14.70
2009,06,19,10,07,14.70
2009,06,19,10,08,14.80
2009,06,19,10,09,14.80
2009,06,19,10,10,14.80
2009,06,19,10,11,14.70
2009,06,19,10,12,14.60
2009,06,19,10,13,14.50
2009,06,19,10,14,14.40
2009,06,19,10,15,14.40
2009,06,19,10,16,14.40
2009,06,19,10,17,14.40
2009,06,19,10,18,14.50
2009,06,19,10,19,14.50
2009,06,19,10,20,14.60
2009,06,19,10,21,14.70
2009,06,19,10,22,14.80
2009,06,19,10,23,14.80
2009,06,19,10,24,14.80
2009,06,19,10,25,14.90
2009,06,19,10,26,14.90
2009,06,19,10,27,14.90
2009,06,19,10,28,14.90
2009,06,19,10,29,14.80
2009,06,19,10,30,14.80
2009,06,19,10,31,14.80
2009,06,19,10,32,14.70
2009,06,19,10,33,14.70
2009,06,19,10,34,14.70
2009,06,19,10,35,14.80
2009,06,19,10,36,14.70
2009,06,19,10,37,14.80
2009,06,19,10,38,14.90
2009,06,19,10,39,14.90
2009,06,19,10,40,14.90
2009,06,19,10,41,14.90
2009,06,19,10,42,14.80
2009,06,19,10,43,14.80
2009,06,19,10,44,14.80
2009,06,19,10,45,14.90
2009,06,19,10,46,14.80
2009,06,19,10,47,14.80
2009,06,19,10,48,14.80
2009,06,19,10,49,14.90
2009,06,19,10,50,15.00
2009,06,19,10,51,15.00
2009,06,19,10,52,15.00
2009,06,19,10,53,15.00
2009,06,19,10,54,14.90
2009,06,19,10,55,14.80
2009,06,19,10,56,14.80
2009,06,19,10,57,14.80
2009,06,19,10,58,14.90
2009,06,19,10,59,15.00
2009,06,19,11,00,15.00
2009,06,19,11,01,15.10
2009,06,19,11,02,15.20
2009,06,19,11,03,15.10
2009,06,19,11,04,15.00
2009,06,19,11,05,15.00
2009,06,19,11,06,15.00
2009,06,19,11,07,15.00
2009,06,19,11,08,15.00
2009,06,19,11,09,15.10
2009,06,19,11,10,15.30
2009,06,19,11,11,15.40
2009,06,19,11,12,15.30
2009,06,19,11,13,15.40
2009,06,19,11,14,15.30
2009,06,19,11,15,15.40
2009,06,19,11,16,15.30
2009,06,19,11,17,15.30
2009,06,19,11,18,15.20
2009,06,19,11,19,15.30
2009,06,19,11,20,15.40
2009,06,19,11,21,15.40
2009,06,19,11,22,15.50
2009,06,19,11,23,15.50
2009,06,19,11,24,15.60
2009,06,19,11,25,15.60
2009,06,19,11,26,15.60
2009,06,19,11,27,15.60
2009,06,19,11,28,15.70
2009,06,19,11,29,15.70
2009,06,19,11,30,15.70
2009,06,19,11,31,15.80
2009,06,19,11,32,15.80
2009,06,19,11,33,15.80
2009,06,19,11,34,15.80
2009,06,19,11,35,15.80
2009,06,19,11,36,15.90
2009,06,19,11,37,15.90
2009,06,19,11,38,15.90
2009,06,19,11,39,15.90
2009,06,19,11,40,15.90
2009,06,19,11,41,15.90
2009,06,19,11,42,15.90
2009,06,19,11,43,16.00
2009,06,19,11,44,16.00
2009,06,19,11,45,16.00
2009,06,19,11,46,16.10
2009,06,19,11,47,16.20
2009,06,19,11,48,16.20
2009,06,19,11,49,16.30
2009,06,19,11,50,16.50
2009,06,19,11,51,16.50
2009,06,19,11,52,16.50
2009,06,19,11,53,16.60
2009,06,19,11,54,16.80
2009,06,19,11,55,16.80
2009,06,19,11,56,16.80
2009,06,19,11,57,16.70
2009,06,19,11,58,16.80
2009,06,19,11,59,16.80
2009,06,19,12,00,16.80
2009,06,19,12,01,16.80
2009,06,19,12,02,16.80
2009,06,19,12,03,16.80
2009,06,19,12,04,16.80
2009,06,19,12,05,16.80
2009,06,19,12,06,16.80
2009,06,19,12,07,16.80
2009,06,19,12,08,16.70
2009,06,19,12,09,16.60
2009,06,19,12,10,16.50
2009,06,19,12,11,16.50
2009,06,19,12,12,16.40
2009,06,19,12,13,16.40
2009,06,19,12,14,16.40
2009,06,19,12,15,16.40
2009,06,19,12,16,16.40
2009,06,19,12,17,16.40
2009,06,19,12,18,16.50
2009,06,19,12,19,16.50
2009,06,19,12,20,16.70
2009,06,19,12,21,16.80
2009,06,19,12,22,16.80
2009,06,19,12,23,16.80
2009,06,19,12,24,16.80
2009,06,19,12,25,16.90
2009,06,19,12,26,17.00
2009,06,19,12,27,16.90
2009,06,19,12,28,16.80
2009,06,19,12,29,16.70
2009,06,19,12,30,16.70
2009,06,19,12,31,16.60
2009,06,19,12,32,16.60
2009,06,19,12,33,16.70
2009,06,19,12,34,16.90
2009,06,19,12,35,17.00
2009,06,19,12,36,17.20
2009,06,19,12,37,17.30
2009,06,19,12,38,17.20
2009,06,19,12,39,17.20
2009,06,19,12,40,17.30
2009,06,19,12,41,17.40
2009,06,19,12,42,17.60
2009,06,19,12,43,17.80
2009,06,19,12,44,17.90
2009,06,19,12,45,18.00
2009,06,19,12,46,18.10
2009,06,19,12,47,18.20
2009,06,19,12,48,18.30
2009,06,19,12,49,18.40
2009,06,19,12,50,18.30
2009,06,19,12,51,18.20
2009,06,19,12,52,18.20
2009,06,19,12,53,18.10
2009,06,19,12,54,18.00
2009,06,19,12,55,17.90
2009,06,19,12,56,17.90
2009,06,19,12,57,18.10
2009,06,19,12,58,18.10
2009,06,19,12,59,18.10
2009,06,19,13,00,18.10
2009,06,19,13,01,18.10
2009,06,19,13,02,18.20
2009,06,19,13,03,18.20
2009,06,19,13,04,18.30
2009,06,19,13,05,18.30
2009,06,19,13,06,18.40
2009,06,19,13,07,18.40
2009,06,19,13,08,18.30
2009,06,19,13,09,18.30
2009,06,19,13,10,18.40
2009,06,19,13,11,18.40
2009,06,19,13,12,18.30
2009,06,19,13,13,18.30
2009,06,19,13,14,18.20
2009,06,19,13,15,18.20
2009,06,19,13,16,18.20
2009,06,19,13,17,18.20
2009,06,19,13,18,18.30
2009,06,19,13,19,18.50
2009,06,19,13,20,18.60
2009,06,19,13,21,18.60
2009,06,19,13,22,18.60
2009,06,19,13,23,18.60
2009,06,19,13,24,18.70
2009,06,19,13,25,18.70
2009,06,19,13,26,18.70
2009,06,19,13,27,18.60
2009,06,19,13,28,18.60
2009,06,19,13,29,18.60
2009,06,19,13,30,18.60
2009,06,19,13,31,18.60
2009,06,19,13,32,18.50
2009,06,19,13,33,18.40
2009,06,19,13,34,18.30
2009,06,19,13,35,18.10
2009,06,19,13,36,18.00
2009,06,19,13,37,17.90
2009,06,19,13,38,17.80
2009,06,19,13,39,17.70
2009,06,19,13,40,17.60
2009,06,19,13,41,17.50
2009,06,19,13,42,17.50
2009,06,19,13,43,17.40
2009,06,19,13,44,17.40
2009,06,19,13,45,17.40
2009,06,19,13,46,17.40
2009,06,19,13,47,17.40
2009,06,19,13,48,17.40
2009,06,19,13,49,17.40
2009,06,19,13,50,17.40
2009,06,19,13,51,17.40
2009,06,19,13,52,17.30
2009,06,19,13,53,17.30
2009,06,19,13,54,17.30
2009,06,19,13,55,17.20
2009,06,19,13,56,17.10
2009,06,19,13,57,16.90
2009,06,19,13,58,16.80
2009,06,19,13,59,16.70
2009,06,19,14,00,16.60
2009,06,19,14,01,16.50
2009,06,19,14,02,16.50
2009,06,19,14,03,16.50
2009,06,19,14,04,16.60
2009,06,19,14,05,16.70
2009,06,19,14,06,16.70
2009,06,19,14,07,16.80
2009,06,19,14,08,16.80
2009,06,19,14,09,16.90
2009,06,19,14,10,16.90
2009,06,19,14,11,16.90
2009,06,19,14,12,16.90
2009,06,19,14,13,16.90
2009,06,19,14,14,16.90
2009,06,19,14,15,16.90
2009,06,19,14,16,16.80
2009,06,19,14,17,16.90
2009,06,19,14,18,16.90
2009,06,19,14,19,16.80
2009,06,19,14,20,16.90
2009,06,19,14,21,16.90
2009,06,19,14,22,17.00
2009,06,19,14,23,17.10
2009,06,19,14,24,17.20
2009,06,19,14,25,17.40
2009,06,19,14,26,17.50
2009,06,19,14,27,17.50
2009,06,19,14,28,17.60
2009,06,19,14,29,17.60
2009,06,19,14,30,17.60
2009,06,19,14,31,17.60
2009,06,19,14,32,17.50
2009,06,19,14,33,17.60
2009,06,19,14,34,17.80
2009,06,19,14,35,17.90
2009,06,19,14,36,17.90
2009,06,19,14,37,17.90
2009,06,19,14,38,18.00
2009,06,19,14,39,18.10
2009,06,19,14,40,18.30
2009,06,19,14,41,18.50
2009,06,19,14,42,18.60
2009,06,19,14,43,18.80
2009,06,19,14,44,18.90
2009,06,19,14,45,18.90
2009,06,19,14,46,18.90
2009,06,19,14,47,18.90
2009,06,19,14,48,18.90
2009,06,19,14,49,18.90
2009,06,19,14,50,18.90
2009,06,19,14,51,19.00
2009,06,19,14,52,19.30
2009,06,19,14,53,19.30
2009,06,19,14,54,19.30
2009,06,19,14,55,19.20
2009,06,19,14,56,19.10
2009,06,19,14,57,19.00
2009,06,19,14,58,19.00
2009,06,19,14,59,18.90
2009,06,19,15,00,18.90
2009,06,19,15,01,18.80
2009,06,19,15,02,18.70
2009,06,19,15,03,18.70
2009,06,19,15,04,18.80
2009,06,19,15,05,18.90
2009,06,19,15,06,19.00
2009,06,19,15,07,19.10
2009,06,19,15,08,19.20
2009,06,19,15,09,19.20
2009,06,19,15,10,19.30
2009,06,19,15,11,19.30
2009,06,19,15,12,19.20
2009,06,19,15,13,19.20
2009,06,19,15,14,19.10
2009,06,19,15,15,19.00
2009,06,19,15,16,19.00
2009,06,19,15,17,18.90
2009,06,19,15,18,18.90
2009,06,19,15,19,18.90
2009,06,19,15,20,18.90
2009,06,19,15,21,18.90
2009,06,19,15,22,18.90
2009,06,19,15,23,18.90
2009,06,19,15,24,18.80
2009,06,19,15,25,18.70
2009,06,19,15,26,18.50
2009,06,19,15,27,18.40
2009,06,19,15,28,18.20
2009,06,19,15,29,18.10
2009,06,19,15,30,18.10
2009,06,19,15,31,18.00
2009,06,19,15,32,18.00
2009,06,19,15,33,18.10
2009,06,19,15,34,18.10
2009,06,19,15,35,18.10
2009,06,19,15,36,18.10
2009,06,19,15,37,18.10
2009,06,19,15,38,18.10
2009,06,19,15,39,18.10
2009,06,19,15,40,18.00
2009,06,19,15,41,17.90
2009,06,19,15,42,17.90
2009,06,19,15,43,17.80
2009,06,19,15,44,17.90
2009,06,19,15,45,17.80
2009,06,19,15,46,17.80
2009,06,19,15,47,17.70
2009,06,19,15,48,17.70
2009,06,19,15,49,17.70
2009,06,19,15,50,17.80
2009,06,19,15,51,17.80
2009,06,19,15,52,17.80
2009,06,19,15,53,17.80
2009,06,19,15,54,17.80
2009,06,19,15,55,17.80
2009,06,19,15,56,17.80
2009,06,19,15,57,17.80
2009,06,19,15,58,17.80
2009,06,19,15,59,17.80
2009,06,19,16,00,17.90
2009,06,19,16,01,17.90
2009,06,19,16,02,17.90
2009,06,19,16,03,17.90
2009,06,19,16,04,18.00
2009,06,19,16,05,18.00
2009,06,19,16,06,18.00
2009,06,19,16,07,17.90
2009,06,19,16,08,17.90
2009,06,19,16,09,18.00
2009,06,19,16,10,18.10
2009,06,19,16,11,18.20
2009,06,19,16,12,18.30
2009,06,19,16,13,18.50
2009,06,19,16,14,18.60
2009,06,19,16,15,18.60
2009,06,19,16,16,18.50
2009,06,19,16,17,18.50
2009,06,19,16,18,18.40
2009,06,19,16,19,18.30
2009,06,19,16,20,18.20
2009,06,19,16,21,18.20
2009,06,19,16,22,18.10
2009,06,19,16,23,18.10
2009,06,19,16,24,18.10
2009,06,19,16,25,18.10
2009,06,19,16,26,18.00
2009,06,19,16,27,17.90
2009,06,19,16,28,17.80
2009,06,19,16,29,17.70
2009,06,19,16,30,17.60
2009,06,19,16,31,17.50
2009,06,19,16,32,17.50
2009,06,19,16,33,17.40
2009,06,19,16,34,17.30
2009,06,19,16,35,17.20
2009,06,19,16,36,17.10
2009,06,19,16,37,17.10
2009,06,19,16,38,17.10
2009,06,19,16,39,17.10
2009,06,19,16,40,17.20
2009,06,19,16,41,17.20
2009,06,19,16,42,17.30
2009,06,19,16,43,17.30
2009,06,19,16,44,17.40
2009,06,19,16,45,17.50
2009,06,19,16,46,17.60
2009,06,19,16,47,17.70
2009,06,19,16,48,17.70
2009,06,19,16,49,17.80
2009,06,19,16,50,17.80
2009,06,19,16,51,17.70
2009,06,19,16,52,17.70
2009,06,19,16,53,17.70
2009,06,19,16,54,17.70
2009,06,19,16,55,17.70
2009,06,19,16,56,17.70
2009,06,19,16,57,17.60
2009,06,19,16,58,17.60
2009,06,19,16,59,17.50
2009,06,19,17,00,17.50
2009,06,19,17,01,17.50
2009,06,19,17,02,17.40
2009,06,19,17,03,17.40
2009,06,19,17,04,17.30
2009,06,19,17,05,17.30
2009,06,19,17,06,17.20
2009,06,19,17,07,17.10
2009,06,19,17,08,17.00
2009,06,19,17,09,16.90
2009,06,19,17,10,16.70
2009,06,19,17,11,16.60
2009,06,19,17,12,16.50
2009,06,19,17,13,16.50
2009,06,19,17,14,16.50
2009,06,19,17,15,16.40
2009,06,19,17,16,16.40
2009,06,19,17,17,16.40
2009,06,19,17,18,16.40
2009,06,19,17,19,16.40
2009,06,19,17,20,16.40
2009,06,19,17,21,16.40
2009,06,19,17,22,16.40
2009,06,19,17,23,16.40
2009,06,19,17,24,16.40
2009,06,19,17,25,16.50
2009,06,19,17,26,16.50
2009,06,19,17,27,16.40
2009,06,19,17,28,16.30
2009,06,19,17,29,16.20
2009,06,19,17,30,16.30
2009,06,19,17,31,16.20
2009,06,19,17,32,16.20
2009,06,19,17,33,16.30
2009,06,19,17,34,16.30
2009,06,19,17,35,16.30
2009,06,19,17,36,16.30
2009,06,19,17,37,16.40
2009,06,19,17,38,16.60
2009,06,19,17,39,16.70
2009,06,19,17,40,16.80
2009,06,19,17,41,16.80
2009,06,19,17,42,16.80
2009,06,19,17,43,16.80
2009,06,19,17,44,16.80
2009,06,19,17,45,16.80
2009,06,19,17,46,17.00
2009,06,19,17,47,17.10
2009,06,19,17,48,17.20
2009,06,19,17,49,17.20
2009,06,19,17,50,17.30
2009,06,19,17,51,17.20
2009,06,19,17,52,17.30
2009,06,19,17,53,17.30
2009,06,19,17,54,17.30
2009,06,19,17,55,17.30
2009,06,19,17,56,17.40
2009,06,19,17,57,17.40
2009,06,19,17,58,17.50
2009,06,19,17,59,17.70
2009,06,19,18,00,17.80
2009,06,19,18,01,18.00
2009,06,19,18,02,18.20
2009,06,19,18,03,18.40
2009,06,19,18,04,18.60
2009,06,19,18,05,18.70
2009,06,19,18,06,18.80
2009,06,19,18,07,18.90
2009,06,19,18,08,18.90
2009,06,19,18,09,18.90
2009,06,19,18,10,19.00
2009,06,19,18,11,19.00
2009,06,19,18,12,19.10
2009,06,19,18,13,19.10
2009,06,19,18,14,19.20
2009,06,19,18,15,19.20
2009,06,19,18,16,19.40
2009,06,19,18,17,19.40
2009,06,19,18,18,19.50
2009,06,19,18,19,19.50
2009,06,19,18,20,19.60
2009,06,19,18,21,19.70
2009,06,19,18,22,19.70
2009,06,19,18,23,19.70
2009,06,19,18,24,19.80
2009,06,19,18,25,19.90
2009,06,19,18,26,19.90
2009,06,19,18,27,19.90
2009,06,19,18,28,19.90
2009,06,19,18,29,19.70
2009,06,19,18,30,19.60
2009,06,19,18,31,19.60
2009,06,19,18,32,19.60
2009,06,19,18,33,19.40
2009,06,19,18,34,19.20
2009,06,19,18,35,19.10
2009,06,19,18,36,19.00
2009,06,19,18,37,18.90
2009,06,19,18,38,18.90
2009,06,19,18,39,18.80
2009,06,19,18,40,18.80
2009,06,19,18,41,18.80
2009,06,19,18,42,18.80
2009,06,19,18,43,18.70
2009,06,19,18,44,18.70
2009,06,19,18,45,18.60
2009,06,19,18,46,18.60
2009,06,19,18,47,18.60
2009,06,19,18,48,18.60
2009,06,19,18,49,18.60
2009,06,19,18,50,18.60
2009,06,19,18,51,18.60
2009,06,19,18,52,18.60
2009,06,19,18,53,18.60
2009,06,19,18,54,18.60
2009,06,19,18,55,18.50
2009,06,19,18,56,18.50
2009,06,19,18,57,18.40
2009,06,19,18,58,18.40
2009,06,19,18,59,18.40
2009,06,19,19,00,18.40
2009,06,19,19,01,18.40
2009,06,19,19,02,18.30
2009,06,19,19,03,18.30
2009,06,19,19,04,18.30
2009,06,19,19,05,18.30
2009,06,19,19,06,18.30
2009,06,19,19,07,18.30
2009,06,19,19,08,18.30
2009,06,19,19,09,18.30
2009,06,19,19,10,18.30
2009,06,19,19,11,18.30
2009,06,19,19,12,18.30
2009,06,19,19,13,18.30
2009,06,19,19,14,18.30
2009,06,19,19,15,18.30
2009,06,19,19,16,18.30
2009,06,19,19,17,18.30
2009,06,19,19,18,18.30
2009,06,19,19,19,18.20
2009,06,19,19,20,18.20
2009,06,19,19,21,18.20
2009,06,19,19,22,18.20
2009,06,19,19,23,18.20
2009,06,19,19,24,18.20
2009,06,19,19,25,18.30
2009,06,19,19,26,18.30
2009,06,19,19,27,18.30
2009,06,19,19,28,18.30
2009,06,19,19,29,18.40
2009,06,19,19,30,18.40
2009,06,19,19,31,18.40
2009,06,19,19,32,18.40
2009,06,19,19,33,18.40
2009,06,19,19,34,18.40
2009,06,19,19,35,18.40
2009,06,19,19,36,18.40
2009,06,19,19,37,18.40
2009,06,19,19,38,18.30
2009,06,19,19,39,18.30
2009,06,19,19,40,18.30
2009,06,19,19,41,18.30
2009,06,19,19,42,18.30
2009,06,19,19,43,18.30
2009,06,19,19,44,18.30
2009,06,19,19,45,18.30
2009,06,19,19,46,18.20
2009,06,19,19,47,18.20
2009,06,19,19,48,18.30
2009,06,19,19,49,18.20
2009,06,19,19,50,18.20
2009,06,19,19,51,18.20
2009,06,19,19,52,18.20
2009,06,19,19,53,18.20
2009,06,19,19,54,18.20
2009,06,19,19,55,18.20
2009,06,19,19,56,18.20
2009,06,19,19,57,18.10
2009,06,19,19,58,18.10
2009,06,19,19,59,18.10
2009,06,19,20,00,18.10
2009,06,19,20,01,18.10
2009,06,19,20,02,18.00
2009,06,19,20,03,18.00
2009,06,19,20,04,18.00
2009,06,19,20,05,18.00
2009,06,19,20,06,18.00
2009,06,19,20,07,18.00
2009,06,19,20,08,18.00
2009,06,19,20,09,18.00
2009,06,19,20,10,17.90
2009,06,19,20,11,17.90
2009,06,19,20,12,17.90
2009,06,19,20,13,17.90
2009,06,19,20,14,17.90
2009,06,19,20,15,17.90
2009,06,19,20,16,17.90
2009,06,19,20,17,17.90
2009,06,19,20,18,17.80
2009,06,19,20,19,17.80
2009,06,19,20,20,17.80
2009,06,19,20,21,17.70
2009,06,19,20,22,17.70
2009,06,19,20,23,17.70
2009,06,19,20,24,17.70
2009,06,19,20,25,17.70
2009,06,19,20,26,17.70
2009,06,19,20,27,17.60
2009,06,19,20,28,17.60
2009,06,19,20,29,17.60
2009,06,19,20,30,17.60
2009,06,19,20,31,17.60
2009,06,19,20,32,17.50
2009,06,19,20,33,17.50
2009,06,19,20,34,17.60
2009,06,19,20,35,17.60
2009,06,19,20,36,17.60
2009,06,19,20,37,17.50
2009,06,19,20,38,17.50
2009,06,19,20,39,17.50
2009,06,19,20,40,17.40
2009,06,19,20,41,17.40
2009,06,19,20,42,17.40
2009,06,19,20,43,17.30
2009,06,19,20,44,17.30
2009,06,19,20,45,17.30
2009,06,19,20,46,17.30
2009,06,19,20,47,17.30
2009,06,19,20,48,17.30
2009,06,19,20,49,17.20
2009,06,19,20,50,17.20
2009,06,19,20,51,17.20
2009,06,19,20,52,17.10
2009,06,19,20,53,17.10
2009,06,19,20,54,17.10
2009,06,19,20,55,17.10
2009,06,19,20,56,17.10
2009,06,19,20,57,17.00
2009,06,19,20,58,17.00
2009,06,19,20,59,16.90
2009,06,19,21,00,16.90
2009,06,19,21,01,16.90
2009,06,19,21,02,16.90
2009,06,19,21,03,16.80
2009,06,19,21,04,16.80
2009,06,19,21,05,16.80
2009,06,19,21,06,16.80
2009,06,19,21,07,16.70
2009,06,19,21,08,16.70
2009,06,19,21,09,16.70
2009,06,19,21,10,16.70
2009,06,19,21,11,16.70
2009,06,19,21,12,16.70
2009,06,19,21,13,16.70
2009,06,19,21,14,16.70
2009,06,19,21,15,16.70
2009,06,19,21,16,16.70
2009,06,19,21,17,16.70
